[[{"header":{"parameterUnit":"m.s-1","parameterCategory":1,"la1":30.2991,"la2":30.254,"lo1":-89.0895,"lo2":-89.0444,"dy":0.0017,"dx":0.0017,"nx":28,"ny":28,"refTime":"2023-07-28T21:00:00:Z","depth":0,"parameterNumber":2,"parameterNumberName":"U-component_of_WINDS"},"data":[0,0,0,0,0,0,0,0,0,0,0,0,0,0,0,0,0,0,0,0,0,0,0,0,0,0,0,0,0,0,0,0,0,0,0,0,0,0,0,0,0,0,0,0,0,0,0,0,0,0,0,0,0,0,0,0,0,0,1.8688,1.8689,0,1.8857,1.8859,1.8861,1.8926,1.8926,1.8925,1.8925,1.9097,1.9102,1.9107,0,0,0,0,0,0,0,0,0,0,0,0,0,1.8417,1.8422,1.8687,1.869,1.8692,1.8857,1.8859,1.8862,1.8926,1.8926,1.8925,1.8924,1.9095,1.9101,1.9107,0,0,0,0,0,0,0,0,0,0,0,0,0,1.8556,1.8424,1.8687,1.8744,1.8751,1.8857,1.8859,1.8862,1.8926,1.8926,1.8925,1.8924,1.9093,1.9101,1.9108,1.917,0,0,1.9131,1.9135,0,0,0,0,0,0,0,0,1.8548,1.8565,1.8733,1.874,1.8748,1.887,1.8827,1.8965,1.8926,1.886,1.8925,1.8924,1.9022,1.9035,1.9069,1.9178,1.9185,1.9132,1.9137,1.914,1.9142,0,0,0,0,0,0,0,1.8538,1.8558,1.8755,1.8736,1.8745,1.876,1.8779,1.8854,1.8943,1.8865,1.887,1.889,1.9026,1.9061,1.9073,1.9188,1.9132,1.9139,1.9143,1.9146,1.9355,1.9356,0,0,0,0,0,0,1.8519,1.855,1.8749,1.876,1.8644,1.8766,1.8787,1.8831,1.8942,1.8958,1.889,1.8892,1.9049,1.9064,1.908,1.9159,1.914,1.9147,1.9151,1.9354,1.9355,1.9357,0,0,0,0,0,0,1.8513,1.8536,1.8742,1.8656,1.8684,1.8771,1.8821,1.8835,1.8871,1.8961,1.8977,1.891,1.9049,1.9069,1.9147,1.9165,1.915,1.9157,1.9353,1.9355,1.9356,1.9317,0,0,0,0,0,0,1.8505,1.8534,1.8558,1.8657,1.8688,1.8807,1.8822,1.8839,1.8884,1.8888,1.8984,1.8999,1.905,1.9135,1.9154,1.9175,1.9163,1.9352,1.9354,1.9355,1.9317,1.9317,1.9317,0,0,0,0,0,1.8495,1.854,1.8559,1.8583,1.8721,1.8808,1.8826,1.8884,1.8885,1.891,1.8968,1.8996,1.916,1.9143,1.9165,1.9188,1.9351,1.9353,1.9355,1.9317,1.9317,1.9317,0,0,0,0,0,0,1.8442,1.8554,1.8577,1.8655,1.8721,1.8819,1.8852,1.8882,1.8949,1.895,1.9018,1.9039,1.9112,1.9158,1.9136,1.9254,1.9257,1.9264,1.922,1.9221,1.9221,1.9208,1.9169,0,0,0,0,0,1.8439,1.8501,1.8596,1.8656,1.8688,1.8764,1.8804,1.8843,1.8915,1.8943,1.9007,1.9074,1.9141,1.9184,1.9251,1.9324,1.9345,1.9351,1.9351,1.9351,1.9355,1.9397,1.9401,1.9364,1.9364,1.9364,0,0,1.8434,1.8503,1.8538,1.8647,1.8703,1.8765,1.8787,1.8852,1.8899,1.8953,1.903,1.9079,1.9159,1.9235,1.9271,1.9276,1.937,1.9353,1.9352,1.9358,1.94,1.9403,1.9406,1.9366,1.9365,1.9365,0,0,1.8456,1.8515,1.8571,1.8627,1.8712,1.8763,1.8776,1.8869,1.8904,1.8983,1.9025,1.9081,1.9195,1.925,1.9293,1.9336,1.9364,1.9356,1.9356,1.9396,1.9398,1.9401,1.9416,1.9421,1.9361,1.9361,1.9361,0,1.8439,1.8535,1.8596,1.8659,1.8705,1.8757,1.8814,1.8866,1.8967,1.8998,1.9001,1.9146,1.9203,1.9292,1.9303,1.9336,1.9353,1.9345,1.9393,1.9397,1.94,1.9415,1.9421,1.9359,1.9359,1.9359,1.936,0,1.8509,1.8575,1.861,1.8707,1.8758,1.8817,1.8887,1.893,1.8965,1.9014,1.9094,1.9165,1.9247,1.9271,1.9305,1.9365,1.9365,1.938,1.9385,1.9401,1.9416,1.9423,1.9357,1.9357,1.9358,1.9358,0,0,1.8502,1.8633,1.8645,1.869,1.8787,1.8839,1.89,1.8981,1.9017,1.9085,1.9138,1.9233,1.9248,1.9297,1.9337,1.9372,1.9401,1.9383,1.9386,1.9384,1.9471,1.9459,1.9465,1.9421,1.9422,1.9423,1.9464,0,1.8537,1.865,1.8707,1.8795,1.8856,1.8907,1.896,1.9025,1.9073,1.9132,1.9185,1.9251,1.9266,1.9295,1.9333,1.939,1.942,1.9388,1.947,1.9472,1.9448,1.9473,1.946,1.9495,1.9471,1.9472,1.9473,0,1.8592,1.8661,1.8755,1.8846,1.8873,1.8921,1.8999,1.9054,1.9129,1.9162,1.9216,1.9256,1.9322,1.9323,1.9414,1.9391,1.9429,1.9462,1.9465,1.9474,1.9473,1.9482,1.9508,1.9513,1.9483,1.9482,1.9481,0,1.8577,1.8693,1.8764,1.8801,1.8909,1.894,1.8986,1.9061,1.9105,1.9174,1.9203,1.9278,1.9318,1.9375,1.9434,1.9429,1.952,1.9526,1.9548,1.9547,1.9565,1.9563,1.9596,1.9589,1.9589,1.9589,1.9589,0,1.861,1.8665,1.8759,1.8802,1.8866,1.8931,1.8992,1.9042,1.9107,1.9161,1.9209,1.9259,1.9334,1.9392,1.9439,1.9508,1.9526,1.9553,1.9565,1.9549,1.9545,1.9574,1.9573,1.9591,1.959,1.959,1.959,0,1.8603,1.8668,1.8749,1.8844,1.8869,1.8912,1.8993,1.9037,1.9088,1.9155,1.9175,1.9254,1.9326,1.939,1.9485,1.9516,1.9586,1.9601,1.9561,1.9567,1.9586,1.9583,1.9638,1.9649,1.9635,1.9635,1.9635,0,1.8619,1.8663,1.8763,1.8803,1.8848,1.8912,1.8958,1.9023,1.9069,1.9157,1.9191,1.9266,1.9329,1.9441,1.9507,1.958,1.9596,1.9611,1.9608,1.959,1.9596,1.9593,1.9597,1.961,1.961,1.961,1.961,0,1.8641,1.8671,1.8735,1.8811,1.8865,1.8928,1.8992,1.9022,1.9099,1.9148,1.9222,1.9271,1.9368,1.9442,1.9522,1.9569,1.9602,1.961,1.9619,1.9603,1.9578,1.9591,1.9559,1.9609,1.9609,1.9609,1.9609,1.9609,1.8646,1.8687,1.8764,1.8834,1.889,1.8949,1.8995,1.9051,1.9114,1.9199,1.9233,1.9308,1.9382,1.9493,1.954,1.9599,1.9606,1.9619,1.9622,1.9624,1.9621,1.9568,1.9614,1.9614,1.9614,1.9614,1.9615,0,1.867,1.8722,1.8786,1.8874,1.8929,1.8956,1.9029,1.9073,1.9138,1.9205,1.9266,1.9351,1.9423,1.9494,1.957,1.9604,1.9621,1.9621,1.9619,1.9629,1.9611,1.9596,1.9606,1.9606,1.9606,1.9606,1.9606,1.9606,1.8688,1.876,1.8799,1.8898,1.8949,1.9024,1.9063,1.9117,1.917,1.9263,1.9323,1.9369,1.9438,1.9519,1.9585,1.9605,1.963,1.9626,1.9649,1.9631,1.9631,1.9631,1.9616,1.9631,1.9631,1.9663,1.9663,1.9663]},{"header":{"parameterUnit":"m.s-1","parameterCategory":1,"la1":30.2991,"la2":30.254,"lo1":-89.0895,"lo2":-89.0444,"dy":0.0017,"dx":0.0017,"nx":28,"ny":28,"refTime":"2023-07-28T21:00:00:Z","depth":0,"parameterNumber":3,"parameterNumberName":"V-component_of_WINDS"},"data":[0,0,0,0,0,0,0,0,0,0,0,0,0,0,0,0,0,0,0,0,0,0,0,0,0,0,0,0,0,0,0,0,0,0,0,0,0,0,0,0,0,0,0,0,0,0,0,0,0,0,0,0,0,0,0,0,0,0,3.4659,3.4658,0,3.4602,3.4602,3.4601,3.4555,3.4555,3.4554,3.4554,3.4491,3.4489,3.4488,0,0,0,0,0,0,0,0,0,0,0,0,0,3.4723,3.4722,3.4659,3.4658,3.4658,3.4603,3.4602,3.4601,3.4555,3.4555,3.4554,3.4554,3.4491,3.449,3.4488,0,0,0,0,0,0,0,0,0,0,0,0,0,3.4684,3.4722,3.4659,3.4628,3.4625,3.4603,3.4602,3.4601,3.4556,3.4555,3.4554,3.4554,3.4492,3.449,3.4488,3.449,0,0,3.4482,3.4481,0,0,0,0,0,0,0,0,3.4686,3.4681,3.4634,3.4631,3.4627,3.4585,3.4601,3.4563,3.4556,3.4582,3.4554,3.4553,3.4522,3.4518,3.4509,3.4487,3.4484,3.4482,3.4481,3.448,3.4479,0,0,0,0,0,0,0,3.4689,3.4683,3.4636,3.4633,3.4629,3.4616,3.461,3.4594,3.4556,3.4579,3.4576,3.457,3.452,3.4511,3.4507,3.4483,3.4482,3.448,3.4479,3.4478,3.4459,3.446,0,0,0,0,0,0,3.4697,3.4686,3.4638,3.4635,3.4655,3.4615,3.4608,3.4599,3.4557,3.4549,3.4571,3.4568,3.4514,3.4509,3.4504,3.4503,3.448,3.4478,3.4477,3.4459,3.4459,3.446,0,0,0,0,0,0,3.4698,3.4693,3.4641,3.4659,3.4652,3.4615,3.4605,3.4598,3.4589,3.455,3.4543,3.4568,3.4513,3.4507,3.4494,3.4501,3.4477,3.4476,3.4458,3.4459,3.446,3.4502,0,0,0,0,0,0,3.47,3.4694,3.4695,3.466,3.4651,3.4633,3.4606,3.4598,3.4586,3.4582,3.4546,3.4539,3.4512,3.4497,3.4492,3.4498,3.4474,3.4457,3.4458,3.4459,3.45,3.4504,3.4508,0,0,0,0,0,3.4703,3.4709,3.4696,3.469,3.4652,3.4633,3.4628,3.4599,3.4587,3.4587,3.4563,3.454,3.4501,3.4496,3.449,3.4495,3.4457,3.4458,3.4459,3.4498,3.4504,3.4508,0,0,0,0,0,0,3.4744,3.4703,3.4689,3.4683,3.4663,3.4626,3.4626,3.4606,3.4587,3.4584,3.4547,3.4539,3.453,3.4511,3.4506,3.4494,3.4476,3.4476,3.4507,3.4512,3.4516,3.452,3.4473,0,0,0,0,0,3.4753,3.4742,3.4707,3.4705,3.4696,3.4663,3.4653,3.4633,3.4609,3.4599,3.4573,3.455,3.4532,3.4521,3.4502,3.4497,3.4488,3.4497,3.4502,3.4505,3.4506,3.4501,3.4504,3.4465,3.4465,3.4465,0,0,3.477,3.4747,3.4742,3.4713,3.4694,3.4683,3.4655,3.4644,3.4635,3.4597,3.4584,3.4564,3.4535,3.4526,3.452,3.451,3.4515,3.4507,3.451,3.4509,3.4503,3.4506,3.451,3.4466,3.4466,3.4465,0,0,3.4796,3.4778,3.4774,3.4757,3.473,3.4707,3.4707,3.4673,3.4659,3.4646,3.4617,3.4604,3.4575,3.4555,3.4541,3.456,3.4538,3.4555,3.4576,3.4572,3.4575,3.4577,3.4583,3.4586,3.4555,3.4555,3.4555,0,3.482,3.4804,3.4775,3.4766,3.4753,3.4721,3.4716,3.47,3.4667,3.4659,3.4648,3.461,3.4588,3.4574,3.4579,3.4569,3.4565,3.4559,3.4577,3.4579,3.4581,3.4586,3.4589,3.4558,3.4557,3.4557,3.4557,0,3.4835,3.4824,3.4824,3.4796,3.4783,3.4776,3.4745,3.4736,3.4717,3.4695,3.4681,3.4654,3.4629,3.4624,3.4605,3.4607,3.4601,3.4584,3.4564,3.4588,3.4592,3.4594,3.4561,3.456,3.4559,3.4559,0,0,3.4885,3.4841,3.4841,3.4828,3.4796,3.4785,3.4777,3.4755,3.4747,3.4725,3.4716,3.4692,3.4677,3.4661,3.4639,3.4635,3.4651,3.4618,3.4617,3.4625,3.4651,3.4664,3.4667,3.4637,3.4637,3.4637,3.4653,0,3.4905,3.489,3.4863,3.4856,3.4844,3.4813,3.4805,3.4783,3.4763,3.4749,3.4726,3.471,3.469,3.4681,3.4676,3.465,3.4656,3.4649,3.4626,3.4626,3.4634,3.4669,3.4682,3.4699,3.4655,3.4655,3.4655,0,3.4927,3.4909,3.4901,3.4869,3.4863,3.4857,3.4835,3.4822,3.4796,3.4782,3.4765,3.4741,3.4729,3.4711,3.4693,3.4689,3.4678,3.4664,3.4664,3.466,3.4642,3.4666,3.4703,3.4706,3.4658,3.4657,3.4657,0,3.4963,3.4937,3.4929,3.4918,3.4881,3.4878,3.4862,3.4836,3.4824,3.4804,3.4795,3.4773,3.4761,3.4743,3.4713,3.4704,3.4698,3.4678,3.4684,3.4685,3.4684,3.4684,3.472,3.4678,3.4678,3.4678,3.4678,0,3.4988,3.4984,3.4945,3.494,3.4934,3.4903,3.4898,3.4879,3.4856,3.4845,3.4816,3.4806,3.4768,3.4753,3.4729,3.4717,3.4712,3.4698,3.4692,3.4701,3.4703,3.4693,3.4691,3.4678,3.4678,3.4678,3.4678,0,3.5028,3.5002,3.4991,3.4957,3.4949,3.4946,3.4916,3.4909,3.4887,3.4874,3.4869,3.4835,3.4816,3.4785,3.4756,3.474,3.4732,3.4722,3.4742,3.4738,3.4745,3.4745,3.4776,3.4778,3.4735,3.4735,3.4736,0,3.5046,3.5042,3.5009,3.5001,3.4987,3.4973,3.4962,3.4931,3.4919,3.489,3.4886,3.4866,3.4848,3.4818,3.479,3.4767,3.4756,3.4768,3.4752,3.4761,3.4755,3.4756,3.4755,3.4772,3.4772,3.4773,3.4773,0,3.508,3.5067,3.5052,3.5033,3.5021,3.5003,3.4984,3.4979,3.4943,3.4932,3.4913,3.4899,3.4871,3.485,3.4824,3.4806,3.4783,3.4779,3.4779,3.4788,3.4799,3.4792,3.4751,3.4778,3.4778,3.4777,3.4777,3.4777,3.5109,3.5104,3.508,3.5064,3.5047,3.5031,3.5023,3.5001,3.4985,3.4961,3.4943,3.4926,3.4899,3.4862,3.4845,3.483,3.4819,3.482,3.482,3.482,3.4823,3.4802,3.4825,3.4824,3.4824,3.4824,3.4824,0,3.5141,3.5124,3.511,3.5086,3.5073,3.5055,3.5033,3.5023,3.5009,3.4987,3.497,3.4949,3.4928,3.4898,3.4876,3.4869,3.4858,3.4864,3.4864,3.486,3.4834,3.4836,3.4873,3.4873,3.4873,3.4873,3.4873,3.4873,3.5156,3.5147,3.5132,3.5114,3.5096,3.508,3.5069,3.5053,3.5036,3.5014,3.4997,3.4979,3.4953,3.4928,3.4908,3.49,3.4892,3.4901,3.489,3.4866,3.4861,3.4857,3.4859,3.49,3.49,3.4916,3.4917,3.4917]}]]